Total_Precipitation_Accumulation
0.74 0.67 0.61 0.61 0.59 0.52 0.46 0.44 0.38 0.34 0.32 0.27 0.22 0.18 0.15 0.14 0.13 0.15 0.16 0.16 0.19 0.24 0.33 0.39 0.44 0.47 0.50 0.55 0.59 0.60 0.56 0.54 0.52 0.51 0.50 0.49 0.47 0.48 0.48 0.47 0.47 0.48 0.48
0.89 0.75 0.68 0.65 0.61 0.56 0.52 0.48 0.42 0.41 0.38 0.35 0.27 0.22 0.19 0.17 0.16 0.16 0.16 0.17 0.18 0.19 0.25 0.34 0.42 0.50 0.58 0.66 0.73 0.77 0.73 0.69 0.65 0.62 0.61 0.60 0.58 0.55 0.55 0.56 0.55 0.56 0.57
1.14 0.97 0.83 0.72 0.62 0.60 0.60 0.61 0.60 0.54 0.47 0.42 0.34 0.28 0.25 0.23 0.19 0.17 0.17 0.17 0.18 0.18 0.21 0.29 0.36 0.44 0.52 0.63 0.77 0.86 0.87 0.86 0.84 0.80 0.75 0.72 0.72 0.71 0.70 0.70 0.70 0.72 0.75
1.27 1.18 1.01 0.86 0.76 0.73 0.72 0.69 0.68 0.64 0.55 0.48 0.42 0.39 0.35 0.29 0.24 0.23 0.22 0.19 0.18 0.17 0.19 0.24 0.28 0.33 0.42 0.55 0.70 0.85 0.90 0.89 0.88 0.85 0.81 0.78 0.77 0.78 0.79 0.81 0.83 0.86 0.92
1.33 1.27 1.15 1.01 0.97 0.90 0.80 0.74 0.71 0.66 0.63 0.58 0.55 0.49 0.45 0.39 0.35 0.34 0.33 0.29 0.26 0.24 0.22 0.25 0.24 0.26 0.31 0.42 0.56 0.75 0.90 0.92 0.92 0.93 0.92 0.89 0.86 0.88 0.89 0.92 0.96 1.02 1.10
1.41 1.36 1.30 1.21 1.13 1.11 1.02 0.89 0.80 0.75 0.70 0.65 0.63 0.60 0.57 0.51 0.45 0.42 0.39 0.37 0.36 0.33 0.31 0.31 0.30 0.28 0.28 0.35 0.44 0.58 0.77 0.90 0.96 0.96 0.96 0.98 0.97 0.97 1.00 1.07 1.16 1.25 1.36
1.49 1.40 1.29 1.32 1.31 1.24 1.18 1.11 1.05 0.99 0.91 0.88 0.87 0.77 0.65 0.60 0.54 0.47 0.45 0.43 0.41 0.40 0.38 0.38 0.37 0.34 0.33 0.34 0.39 0.48 0.60 0.77 0.97 1.05 1.05 1.03 1.04 1.11 1.20 1.28 1.38 1.49 1.58
1.55 1.49 1.37 1.27 1.32 1.35 1.27 1.22 1.22 1.21 1.17 1.14 1.14 1.11 0.94 0.77 0.60 0.50 0.49 0.49 0.48 0.51 0.52 0.49 0.46 0.43 0.40 0.39 0.39 0.44 0.51 0.60 0.77 1.01 1.15 1.18 1.20 1.26 1.41 1.59 1.71 1.79 1.87
1.79 1.63 1.59 1.50 1.36 1.38 1.33 1.24 1.16 1.16 1.19 1.21 1.19 1.29 1.19 0.94 0.73 0.59 0.51 0.49 0.49 0.51 0.52 0.53 0.51 0.49 0.45 0.42 0.40 0.40 0.44 0.50 0.62 0.85 1.13 1.34 1.43 1.55 1.71 1.90 2.10 2.24 2.28
2.07 1.98 1.83 1.75 1.61 1.51 1.45 1.41 1.36 1.27 1.25 1.25 1.23 1.15 1.10 0.98 0.94 0.79 0.60 0.54 0.52 0.52 0.53 0.52 0.50 0.51 0.53 0.53 0.53 0.53 0.55 0.58 0.68 0.83 1.09 1.37 1.61 1.85 2.10 2.27 2.40 2.53 2.56
2.11 2.07 2.00 1.93 1.79 1.67 1.62 1.63 1.57 1.51 1.46 1.38 1.32 1.25 1.20 1.06 0.97 0.98 0.80 0.61 0.61 0.60 0.61 0.60 0.57 0.55 0.56 0.60 0.63 0.67 0.72 0.72 0.79 0.94 1.19 1.49 1.85 2.19 2.48 2.68 2.76 2.70 2.63
2.25 2.10 2.00 1.96 1.91 1.84 1.77 1.76 1.77 1.69 1.59 1.53 1.50 1.43 1.41 1.33 1.15 1.12 1.04 0.83 0.77 0.70 0.70 0.70 0.70 0.70 0.68 0.70 0.72 0.81 0.80 0.80 0.86 1.00 1.29 1.61 1.81 2.02 2.24 2.50 2.70 2.77 2.79
2.21 2.15 2.04 2.00 1.99 1.88 1.84 1.82 1.79 1.72 1.67 1.61 1.60 1.57 1.50 1.41 1.34 1.37 1.40 1.22 1.06 0.88 0.82 0.80 0.77 0.76 0.77 0.79 0.80 0.89 0.86 0.90 0.93 0.98 1.16 1.48 1.63 1.65 1.69 1.86 2.16 2.44 2.62
2.15 2.17 2.15 2.03 1.99 1.95 1.85 1.79 1.75 1.66 1.63 1.61 1.56 1.57 1.54 1.47 1.46 1.50 1.57 1.62 1.51 1.23 1.03 0.90 0.85 0.90 0.93 0.93 0.94 0.98 0.84 0.89 0.89 0.92 1.00 1.15 1.22 1.20 1.23 1.36 1.57 1.81 2.03
2.01 2.02 2.04 1.94 1.86 1.83 1.78 1.74 1.69 1.60 1.54 1.50 1.46 1.46 1.45 1.40 1.40 1.44 1.51 1.67 1.86 1.71 1.30 0.99 0.91 0.92 0.98 1.01 1.06 0.99 0.86 0.92 0.93 0.91 0.92 0.92 0.95 0.99 1.02 1.10 1.22 1.36 1.51
1.65 1.72 1.77 1.76 1.69 1.66 1.63 1.61 1.55 1.52 1.50 1.41 1.36 1.36 1.33 1.28 1.31 1.38 1.47 1.54 1.70 1.83 1.56 1.08 0.91 0.85 0.90 0.93 0.99 0.91 0.83 0.93 0.89 0.83 0.80 0.81 0.85 0.90 0.95 1.00 1.04 1.11 1.20
1.33 1.37 1.37 1.39 1.43 1.44 1.45 1.43 1.40 1.40 1.40 1.36 1.34 1.34 1.33 1.29 1.29 1.29 1.33 1.39 1.46 1.59 1.58 1.15 0.97 0.93 0.93 0.90 0.91 0.87 0.80 0.79 0.75 0.81 0.78 0.77 0.79 0.85 0.91 0.94 0.97 1.00 1.05
1.16 1.17 1.17 1.14 1.13 1.15 1.19 1.21 1.19 1.20 1.24 1.23 1.22 1.24 1.25 1.27 1.30 1.27 1.26 1.25 1.23 1.24 1.34 1.19 0.93 0.89 0.88 0.86 0.90 0.92 0.86 0.79 0.71 0.77 0.76 0.75 0.77 0.80 0.84 0.91 0.96 1.00 1.03
1.07 1.04 1.04 1.03 1.00 0.98 0.99 1.04 1.09 1.11 1.13 1.12 1.12 1.14 1.15 1.19 1.20 1.15 1.12 1.10 1.09 1.11 1.20 1.22 1.00 0.86 0.84 0.85 0.91 0.92 0.89 0.85 0.79 0.82 0.86 0.83 0.84 0.83 0.86 0.92 0.99 1.03 1.06
1.11 1.01 0.96 0.95 0.94 0.96 0.96 0.98 1.06 1.12 1.12 1.12 1.14 1.14 1.10 1.07 1.04 1.01 1.03 1.05 1.12 1.22 1.24 1.27 1.16 0.97 0.90 0.87 0.95 0.96 0.94 0.88 0.88 0.87 0.97 1.00 0.99 0.95 0.91 0.93 0.98 1.03 1.08
1.10 1.07 1.01 0.97 0.95 0.94 0.97 1.01 1.04 1.09 1.10 1.12 1.10 1.08 1.05 1.06 1.02 1.00 1.01 1.05 1.13 1.28 1.40 1.45 1.35 1.17 1.05 0.99 0.96 0.93 1.02 1.04 1.04 0.98 0.98 0.99 1.00 1.01 0.99 1.00 1.01 1.03 1.09
1.05 1.11 1.12 1.08 1.02 1.00 1.15 1.13 1.06 1.05 1.07 1.08 1.07 1.02 1.00 1.03 1.00 1.00 1.02 1.09 1.23 1.40 1.55 1.60 1.53 1.34 1.07 0.94 0.97 1.11 1.27 1.46 1.41 1.04 1.02 1.05 1.01 1.09 1.04 1.01 1.14 1.18 1.18
1.11 1.15 1.19 1.20 1.16 1.18 1.23 1.10 1.08 1.00 0.98 0.99 0.98 0.97 0.93 0.90 0.95 0.88 0.95 1.07 1.15 1.28 1.36 1.38 1.35 1.12 0.98 0.94 1.17 1.44 1.49 1.54 1.34 1.07 1.24 1.36 1.19 1.15 1.06 1.10 1.26 1.20 1.17
1.11 1.16 1.19 1.17 1.12 1.11 1.12 1.02 0.99 0.91 0.91 0.91 0.90 0.89 0.91 0.91 0.91 0.97 1.03 1.09 0.98 0.92 0.96 0.96 1.00 0.99 1.00 1.10 1.39 1.73 1.84 1.85 1.61 1.39 1.41 1.54 1.27 1.14 1.08 1.12 1.27 1.20 1.10
1.07 1.04 1.05 1.06 1.04 1.03 1.00 0.92 0.89 0.83 0.85 0.81 0.78 0.79 0.82 0.84 1.00 1.17 1.21 1.21 1.03 0.84 0.85 0.97 1.09 1.12 1.19 1.28 1.41 1.74 2.01 2.15 1.90 1.43 1.27 1.38 1.28 1.21 1.20 1.16 1.19 1.24 1.15
1.03 0.98 0.92 0.89 0.88 0.88 0.90 0.84 0.82 0.78 0.81 0.78 0.74 0.74 0.83 0.85 1.01 1.16 1.11 1.16 1.12 0.94 0.90 0.94 0.99 1.04 1.02 1.10 1.33 1.50 2.00 2.54 2.28 1.75 1.21 1.33 1.36 1.46 1.69 1.27 1.10 1.14 1.17